This is the latest recevied weather packets stored in our database for station/object N5ATR. If no packets are shown the sender has not sent any weather packets the latest 10 day(s).
| Time | Temp. | Humidity | Pressure | Rain* | Wind** | Luminosity | Snow |
|---|---|---|---|---|---|---|---|
| 1777823792 | 13.33° C | 47% | 1021.2 hPa | 0 mm | - | 497 W/m² | - |
| 1777823490 | 12.78° C | 52% | 1021.2 hPa | 0 mm | - | 462 W/m² | - |
| 1777823187 | 12.78° C | 53% | 1020.9 hPa | 0 mm | - | 436 W/m² | - |
| 1777822885 | 12.78° C | 53% | 1021.2 hPa | 0 mm | - | 418 W/m² | - |
| 1777822582 | 12.78° C | 55% | 1021.3 hPa | 0 mm | - | 412 W/m² | - |
| 1777822279 | 12.22° C | 55% | 1021.3 hPa | 0 mm | - | 409 W/m² | - |
| 1777821977 | 11.67° C | 58% | 1021.3 hPa | 0 mm | - | 429 W/m² | - |
| 1777821675 | 11.67° C | 58% | 1021.3 hPa | 0 mm | - | 356 W/m² | - |
| 1777821372 | 11.67° C | 60% | 1021.4 hPa | 0 mm | - | 319 W/m² | - |
| 1777821069 | 11.11° C | 59% | 1021.3 hPa | 0 mm | - | 363 W/m² | - |
| 1777820766 | 11.11° C | 61% | 1021.3 hPa | 0 mm | - | 303 W/m² | - |
| 1777820462 | 11.11° C | 60% | 1021.2 hPa | 0 mm | - | 280 W/m² | - |
| 1777820159 | 11.11° C | 58% | 1021.3 hPa | 0 mm | - | 275 W/m² | - |
| 1777819856 | 11.11° C | 57% | 1021.4 hPa | 0 mm | - | 308 W/m² | - |
| 1777819554 | 10.56° C | 59% | 1021.4 hPa | 0 mm | - | 333 W/m² | - |
| 1777819251 | 10.56° C | 62% | 1021.3 hPa | 0 mm | - | 307 W/m² | - |
| 1777818948 | 10.56° C | 63% | 1021.5 hPa | 0 mm | - | 263 W/m² | - |
| 1777818644 | 10° C | 65% | 1021.3 hPa | 0 mm | - | 277 W/m² | - |
| 1777818342 | 9.44° C | 65% | 1021.2 hPa | 0 mm | - | 252 W/m² | - |
| 1777818038 | 10° C | 64% | 1021.2 hPa | 0 mm | - | 224 W/m² | - |
| 1777817735 | 9.44° C | 66% | 1020.9 hPa | 0 mm | - | 252 W/m² | - |
| 1777817432 | 8.89° C | 69% | 1021.2 hPa | 0 mm | - | 230 W/m² | - |
| 1777817128 | 8.33° C | 70% | 1021.2 hPa | 0 mm | - | 202 W/m² | - |
| 1777816826 | 7.22° C | 74% | 1020.9 hPa | 0 mm | - | 59 W/m² | - |
| 1777816523 | 6.67° C | 76% | 1021.3 hPa | 0 mm | - | 50 W/m² | - |
* Rain latest hour (hover to see other rain measurements)
** Current wind speed in m/s (hover to see current wind gust speed)